TimeCST,TemperatureF,Dew PointF,Humidity,Sea Level PressureIn,VisibilityMPH,Wind Direction,Wind SpeedMPH,Gust SpeedMPH,PrecipitationIn,Events,Conditions,WindDirDegrees,DateUTC
12:15 AM,60.8,44.6,55,30.11,10.0,South,12.7,21.9,N/A,,Mostly Cloudy,190,2012-12-14 06:15:00
12:35 AM,60.8,44.6,55,30.10,10.0,South,15.0,18.4,N/A,,Overcast,180,2012-12-14 06:35:00
12:55 AM,59.0,44.6,59,30.10,10.0,South,9.2,-,N/A,,Overcast,180,2012-12-14 06:55:00
1:15 AM,59.0,42.8,55,30.10,10.0,South,13.8,18.4,N/A,,Overcast,180,2012-12-14 07:15:00
1:35 AM,59.0,42.8,55,30.09,10.0,South,9.2,17.3,N/A,,Overcast,190,2012-12-14 07:35:00
1:55 AM,57.2,42.8,59,30.10,10.0,SSW,5.8,-,N/A,,Mostly Cloudy,200,2012-12-14 07:55:00
2:15 AM,55.4,42.8,63,30.10,10.0,South,6.9,-,N/A,,Scattered Clouds,190,2012-12-14 08:15:00
2:35 AM,55.4,42.8,63,30.09,10.0,South,6.9,-,N/A,,Mostly Cloudy,190,2012-12-14 08:35:00
2:55 AM,55.4,41.0,58,30.08,10.0,South,8.1,-,N/A,,Scattered Clouds,180,2012-12-14 08:55:00
3:15 AM,55.4,41.0,58,30.08,10.0,South,6.9,-,N/A,,Scattered Clouds,170,2012-12-14 09:15:00
3:35 AM,55.4,41.0,58,30.07,10.0,SSE,5.8,-,N/A,,Scattered Clouds,160,2012-12-14 09:35:00
3:55 AM,55.4,41.0,58,30.07,10.0,SSE,6.9,-,N/A,,Clear,160,2012-12-14 09:55:00
4:15 AM,55.4,41.0,58,30.07,10.0,SSE,8.1,-,N/A,,Mostly Cloudy,150,2012-12-14 10:15:00
4:35 AM,55.4,39.2,54,30.06,10.0,SSE,8.1,-,N/A,,Overcast,150,2012-12-14 10:35:00
4:55 AM,55.4,37.4,51,30.06,10.0,SSE,4.6,-,N/A,,Overcast,150,2012-12-14 10:55:00
5:15 AM,55.4,37.4,51,30.05,10.0,SSE,4.6,-,N/A,,Overcast,150,2012-12-14 11:15:00
5:35 AM,55.4,37.4,51,30.04,10.0,SSE,9.2,-,N/A,,Overcast,160,2012-12-14 11:35:00
5:55 AM,55.4,37.4,51,30.04,10.0,SSE,8.1,-,N/A,,Overcast,150,2012-12-14 11:55:00
6:15 AM,55.4,39.2,54,30.03,10.0,SSE,8.1,-,N/A,,Mostly Cloudy,160,2012-12-14 12:15:00
6:35 AM,57.2,41.0,55,30.04,10.0,South,6.9,-,N/A,,Mostly Cloudy,170,2012-12-14 12:35:00
6:55 AM,57.2,42.8,59,30.04,10.0,South,6.9,-,N/A,,Overcast,170,2012-12-14 12:55:00
7:15 AM,59.0,44.6,59,30.04,10.0,SSE,9.2,-,N/A,,Overcast,160,2012-12-14 13:15:00
7:35 AM,59.0,44.6,59,30.03,10.0,South,10.4,-,N/A,,Overcast,170,2012-12-14 13:35:00
7:55 AM,59.0,46.4,63,30.03,10.0,SSE,9.2,-,N/A,,Overcast,150,2012-12-14 13:55:00
8:15 AM,57.2,44.6,63,30.03,10.0,SSE,12.7,-,N/A,,Overcast,160,2012-12-14 14:15:00
8:35 AM,57.2,44.6,63,30.03,10.0,SSE,13.8,20.7,N/A,,Overcast,160,2012-12-14 14:35:00
8:55 AM,57.2,44.6,63,30.04,10.0,South,12.7,19.6,N/A,,Overcast,170,2012-12-14 14:55:00
9:15 AM,57.2,44.6,63,30.03,10.0,SSE,12.7,20.7,N/A,,Overcast,160,2012-12-14 15:15:00
9:35 AM,59.0,46.4,63,30.03,10.0,South,13.8,25.3,N/A,,Overcast,170,2012-12-14 15:35:00
9:55 AM,59.0,46.4,63,30.04,10.0,SSE,13.8,21.9,N/A,,Overcast,160,2012-12-14 15:55:00
10:15 AM,57.2,46.4,67,30.03,10.0,SSE,12.7,21.9,N/A,,Light Drizzle,160,2012-12-14 16:15:00
10:35 AM,57.2,50.0,77,30.02,10.0,SSE,16.1,21.9,N/A,,Drizzle,160,2012-12-14 16:35:00
11:35 AM,55.4,51.8,88,29.96,7.0,SSE,10.4,24.2,N/A,Rain,Light Rain,150,2012-12-14 17:35:00
11:55 AM,55.4,51.8,88,29.93,10.0,SSE,20.7,28.8,N/A,Rain,Light Rain,150,2012-12-14 17:55:00
12:15 PM,55.4,53.6,94,29.90,10.0,SE,23.0,32.2,0.01,,Mostly Cloudy,140,2012-12-14 18:15:00
12:35 PM,57.2,53.6,88,29.91,10.0,SSE,21.9,29.9,0.02,,Mostly Cloudy,160,2012-12-14 18:35:00
12:55 PM,59.0,53.6,82,29.89,10.0,South,19.6,28.8,0.03,,Overcast,170,2012-12-14 18:55:00
1:15 PM,59.0,53.6,82,29.89,10.0,South,18.4,27.6,N/A,,Overcast,170,2012-12-14 19:15:00
1:55 PM,60.8,53.6,77,29.87,10.0,South,18.4,27.6,N/A,,Overcast,170,2012-12-14 19:55:00
2:15 PM,60.8,53.6,77,29.85,10.0,South,16.1,28.8,N/A,,Overcast,170,2012-12-14 20:15:00
2:35 PM,60.8,55.4,82,29.82,10.0,SSE,17.3,24.2,N/A,,Overcast,160,2012-12-14 20:35:00
2:55 PM,60.8,55.4,82,29.80,10.0,South,25.3,36.8,N/A,,Overcast,170,2012-12-14 20:55:00
3:15 PM,60.8,55.4,82,29.80,10.0,South,24.2,32.2,N/A,,Overcast,170,2012-12-14 21:15:00
3:35 PM,60.8,55.4,82,29.80,10.0,South,17.3,29.9,N/A,,Overcast,170,2012-12-14 21:35:00
4:15 PM,60.8,55.4,82,29.78,10.0,South,16.1,31.1,N/A,,Overcast,170,2012-12-14 22:15:00
4:35 PM,62.6,55.4,77,29.78,10.0,South,23.0,28.8,N/A,,Overcast,170,2012-12-14 22:35:00
4:55 PM,62.6,57.2,82,29.77,10.0,South,18.4,34.5,N/A,,Overcast,170,2012-12-14 22:55:00
5:15 PM,60.8,55.4,82,29.76,10.0,SSE,18.4,25.3,N/A,,Overcast,160,2012-12-14 23:15:00
5:35 PM,60.8,57.2,88,29.77,10.0,South,17.3,23.0,N/A,,Overcast,170,2012-12-14 23:35:00
6:15 PM,62.6,57.2,82,29.79,10.0,South,12.7,25.3,N/A,,Overcast,180,2012-12-15 00:15:00
6:35 PM,62.6,59.0,88,29.79,10.0,South,17.3,21.9,N/A,,Overcast,170,2012-12-15 00:35:00
6:55 PM,62.6,59.0,88,29.78,10.0,South,16.1,23.0,N/A,,Overcast,180,2012-12-15 00:55:00
7:15 PM,62.6,59.0,88,29.79,10.0,South,20.7,27.6,N/A,,Overcast,190,2012-12-15 01:15:00
7:55 PM,64.4,59.0,83,29.84,10.0,SW,15.0,29.9,N/A,,Overcast,230,2012-12-15 01:55:00
9:15 PM,55.4,51.8,88,29.89,10.0,SW,5.8,-,0.01,,Overcast,220,2012-12-15 03:15:00
9:35 PM,55.4,51.8,88,29.89,10.0,SSW,8.1,-,0.03,,Overcast,210,2012-12-15 03:35:00
9:55 PM,55.4,50.0,82,29.89,10.0,SW,8.1,-,0.04,,Overcast,220,2012-12-15 03:55:00
10:15 PM,57.2,50.0,77,29.89,10.0,SW,10.4,-,N/A,,Overcast,220,2012-12-15 04:15:00
10:35 PM,57.2,46.4,67,29.89,10.0,SW,9.2,-,0.02,,Overcast,230,2012-12-15 04:35:00
10:55 PM,57.2,46.4,67,29.89,10.0,SW,6.9,-,0.03,,Overcast,230,2012-12-15 04:55:00
11:15 PM,59.0,44.6,59,29.89,10.0,WSW,6.9,-,0.01,,Overcast,240,2012-12-15 05:15:00
11:35 PM,57.2,44.6,63,29.89,10.0,WSW,9.2,-,0.01,,Overcast,240,2012-12-15 05:35:00
11:55 PM,59.0,41.0,51,29.88,10.0,WSW,10.4,-,0.02,,Overcast,240,2012-12-15 05:55:00